FW9684 Weather Reports


time (UTC)temp
C
wind
direction
speed
KPH
gust
KPH
rain 1hr
cm
rain 24hr
cm
rain mn
cm
humidity
%
barometer
mb
20260506124506 9 24 12.9 25.7 0.00 0.00 0.00 82 1013.1
20260506123003 9 39 17.7 27.4 0.00 0.00 0.00 83 1012.3
20260506121602 9 17 11.3 29.0 0.00 0.00 0.00 83 1011.9
20260506120057 9 42 14.5 27.4 0.00 0.00 0.00 83 1011.5
20260506114553 10 32 9.7 25.7 0.00 0.00 0.00 81 1011.3
20260506113049 10 5 6.4 25.7 0.00 0.00 0.00 80 1011.3
20260506111546 10 21 8.0 27.4 0.00 0.00 0.00 81 1011.0
20260506110043 10 24 4.8 24.1 0.00 0.00 0.00 80 1010.9
20260506104546 10 26 9.7 22.5 0.00 0.00 0.00 79 1010.8
20260506103039 10 27 8.0 22.5 0.00 0.00 0.00 79 1010.9
20260506101533 10 29 8.0 19.3 0.00 0.00 0.00 78 1010.9
20260506100036 10 34 6.4 17.7 0.00 0.00 0.00 78 1010.5
20260506094534 11 23 8.0 14.5 0.00 0.00 0.00 80 1010.5
20260506093033 10 37 4.8 12.9 0.00 0.00 0.00 80 1010.2
20260506091526 10 50 6.4 17.7 0.00 0.00 0.00 79 1010.3
20260506090020 10 51 6.4 14.5 0.00 0.00 0.00 79 1010.4
20260506084517 11 42 8.0 17.7 0.00 0.00 0.00 79 1010.4
20260506083015 11 15 11.3 19.3 0.00 0.00 0.00 78 1009.8
20260506081511 11 38 6.4 17.7 0.00 0.00 0.00 77 1009.7
20260506073002 11 35 11.3 19.3 0.00 0.00 0.00 76 1009.7
20260506071559 12 42 9.7 22.5 0.00 0.00 0.00 75 1009.9
20260506061545 13 42 12.9 22.5 0.00 0.00 0.00 71 1009.2
20260506044522 16 36 6.4 27.4 0.00 0.00 0.00 65 1008.2
20260506043018 16 12 12.9 22.5 0.00 0.00 0.00 63 1008.3
20260506041517 16 5 6.4 17.7 0.00 0.00 0.00 61 1008.0
20260506040013 17 40 8.0 19.3 0.00 0.00 0.00 59 1008.0
20260506034511 17 34 6.4 16.1 0.00 0.00 0.00 58 1007.7
20260506033007 18 55 8.0 19.3 0.00 0.00 0.00 56 1007.8
20260506031504 18 32 9.7 22.5 0.00 0.00 0.00 54 1007.5
20260506030000 20 36 12.9 27.4 0.00 0.00 0.00 51 1007.3
20260506024602 21 25 11.3 22.5 0.00 0.00 0.00 48 1007.2
20260506023101 21 55 11.3 19.3 0.00 0.00 0.00 47 1006.9
20260506021556 22 44 9.7 19.3 0.00 0.00 0.00 46 1006.5
20260506020054 22 36 8.0 19.3 0.00 0.00 0.00 44 1006.3
20260506014552 23 44 9.7 17.7 0.00 0.00 0.00 43 1005.8
20260506013051 25 17 6.4 25.7 0.00 0.00 0.00 40 1005.7
20260506011549 25 42 8.0 16.1 0.00 0.00 0.00 37 1005.1
20260506010049 26 13 4.8 12.9 0.00 0.00 0.00 36 1005.2
20260506004547 26 19 6.4 12.9 0.00 0.00 0.00 35 1005.0
20260506003046 26 28 3.2 14.5 0.00 0.00 0.00 33 1005.0
20260506001549 27 14 6.4 14.5 0.00 0.00 0.00 31 1004.8
20260506000045 28 23 1.6 19.3 0.00 0.00 0.00 30 1004.6
20260505234549 29 165 11.3 27.4 0.00 0.00 0.00 22 1004.3
20260505233043 29 159 12.9 30.6 0.00 0.00 0.00 22 1004.1
20260505231552 30 162 17.7 33.8 0.00 0.00 0.00 21 1003.9
20260505230054 30 166 19.3 32.2 0.00 0.00 0.00 21 1003.9
20260505224542 31 181 9.7 25.7 0.00 0.00 0.00 22 1003.3
20260505223039 31 177 17.7 40.2 0.00 0.00 0.00 21 1003.8
20260505221539 31 167 20.9 51.5 0.00 0.00 0.00 20 1003.7
20260505220037 31 159 20.9 35.4 0.00 0.00 0.00 21 1003.5
20260505214536 31 167 14.5 30.6 0.00 0.00 0.00 22 1003.7
20260505213042 32 158 22.5 35.4 0.00 0.00 0.00 20 1003.7
20260505211534 32 173 12.9 24.1 0.00 0.00 0.00 21 1003.3
20260505210035 31 175 12.9 27.4 0.00 0.00 0.00 21 1003.8
20260505204531 32 185 14.5 30.6 0.00 0.00 0.00 20 1004.0
20260505203029 32 176 17.7 32.2 0.00 0.00 0.00 20 1003.8
20260505201527 32 163 16.1 30.6 0.00 0.00 0.00 19 1003.9
20260505200026 33 150 14.5 25.7 0.00 0.00 0.00 19 1003.8
20260505194521 33 173 20.9 57.9 0.00 0.00 0.00 19 1003.4
20260505193017 32 175 11.3 24.1 0.00 0.00 0.00 21 1003.9
20260505191515 32 115 12.9 32.2 0.00 0.00 0.00 21 1004.0
20260505190012 32 170 14.5 27.4 0.00 0.00 0.00 21 1004.1
20260505184508 32 174 12.9 20.9 0.00 0.00 0.00 22 1004.4
20260505183003 32 155 16.1 29.0 0.00 0.00 0.00 22 1004.5
20260505181601 31 156 17.7 29.0 0.00 0.00 0.00 24 1004.7
20260505180106 30 132 9.7 22.5 0.00 0.00 0.00 27 1004.9
20260505174609 30 184 9.7 20.9 0.00 0.00 0.00 28 1004.8
20260505173051 30 160 11.3 24.1 0.00 0.00 0.00 32 1004.9
20260505171550 28 186 8.0 25.7 0.00 0.00 0.00 35 1005.0
20260505170046 28 161 12.9 24.1 0.00 0.00 0.00 36 1005.1
20260505164543 27 177 8.0 24.1 0.00 0.00 0.00 40 1005.0
20260505163039 27 153 8.0 27.4 0.00 0.00 0.00 42 1005.1
20260505161537 27 162 14.5 35.4 0.00 0.00 0.00 46 1005.0
20260505153024 24 157 19.3 29.0 0.00 0.00 0.00 57 1004.5
20260505151521 23 158 20.9 33.8 0.00 0.00 0.00 58 1004.4